Theta_e
302 298 296 295 298 298 299 300 300 298 297 296 297 295 295 295 296 296 295 296 295 296 296 298 298 298 300 298 295 293 293 293 293 293 293 292 292 292 292 292 292 292 291 293 293 293 293 293 294 295 295 296 297 296 297 298 298 299 301 303 302 303 305 307 307 307 306 304 302 300 299 297 298 297 297 296 297 297 298 298 299 300 300 301 301 302
299 297 297 300 300 300 300 300 297 296 296 296 296 295 294 295 294 297 295 295 296 294 296 295 295 296 299 296 294 293 293 293 293 293 292 292 292 292 292 292 292 291 293 293 293 292 293 293 294 294 294 294 295 295 296 296 297 298 300 300 301 303 303 303 304 303 301 301 300 298 296 296 295 295 294 294 294 294 295 295 296 297 298 299 299 300
295 294 299 301 298 297 296 296 296 297 295 295 295 295 293 295 296 296 294 294 295 294 295 295 294 296 298 294 292 292 293 293 292 293 292 292 292 292 292 292 292 292 292 292 292 292 292 293 293 293 293 293 294 294 294 296 297 297 298 299 300 301 301 301 301 301 300 300 299 297 295 294 292 293 293 292 292 293 293 293 294 294 295 296 296 297
292 296 300 297 297 296 293 294 294 294 295 294 294 292 292 296 293 294 294 293 293 294 295 294 293 296 296 292 291 291 291 290 291 290 291 292 292 292 292 292 292 292 292 291 291 291 291 292 292 293 293 293 294 294 294 294 295 296 297 297 298 299 299 299 298 297 297 297 296 296 294 294 293 291 292 292 292 292 292 291 292 293 293 293 294 294
296 297 296 297 297 297 295 293 293 293 293 295 295 294 294 294 294 295 295 293 292 293 291 293 293 294 298 294 291 290 290 289 290 290 290 291 292 292 292 291 292 292 292 291 291 291 291 292 291 291 291 293 292 292 292 293 293 294 295 296 297 297 298 298 298 297 297 295 294 294 294 294 293 293 292 291 290 291 291 291 291 292 293 293 293 293
297 297 296 295 295 296 296 292 294 296 293 295 295 295 296 296 295 294 293 293 294 293 293 293 289 292 295 294 294 290 290 289 289 289 290 290 291 291 290 291 291 291 291 292 291 291 291 291 291 291 291 292 291 291 291 291 292 294 295 296 296 297 297 297 297 298 299 297 295 294 293 291 290 289 289 288 289 289 290 290 292 292 292 293 293 293
297 295 299 296 295 295 296 296 297 297 295 293 295 297 296 295 295 295 293 293 290 289 292 291 289 289 295 294 292 290 290 289 289 289 290 290 291 291 291 292 291 291 290 290 290 290 290 290 291 290 290 291 290 290 291 291 291 292 293 294 295 295 295 296 296 296 295 294 294 293 292 291 289 288 289 290 291 290 291 292 291 291 292 292 292 292
295 294 295 297 296 295 294 293 296 295 295 293 294 292 296 295 293 294 294 293 293 293 292 289 292 287 288 294 290 290 290 289 289 289 290 290 291 291 291 291 291 291 291 291 290 290 290 290 290 289 289 289 289 290 290 291 291 291 292 292 293 293 293 294 294 294 294 293 292 292 291 290 290 289 289 290 290 291 291 291 291 291 291 292 292 292
296 293 295 295 295 294 294 297 297 297 296 295 291 294 294 295 295 295 294 292 292 290 289 289 292 286 287 292 288 290 289 289 289 290 290 290 291 291 292 291 292 291 291 290 290 290 289 289 289 289 289 289 289 289 290 290 290 291 291 291 291 291 291 292 292 292 293 292 292 291 291 289 290 290 290 290 291 291 291 290 291 291 291 291 291 291
295 296 298 299 296 294 296 291 296 298 296 292 292 293 293 293 293 294 292 292 290 288 285 290 291 286 288 294 291 289 289 291 291 291 291 291 291 292 291 292 291 291 290 290 290 289 289 289 289 288 288 288 288 289 289 289 290 290 290 290 290 289 290 290 291 291 291 292 292 291 290 290 289 290 290 291 290 290 291 290 290 290 290 290 290 290
293 294 294 297 296 298 292 290 291 294 293 293 295 294 293 292 291 291 291 290 288 283 286 292 291 290 285 292 293 291 293 294 293 292 292 292 292 292 292 292 291 290 290 290 289 289 289 288 288 288 288 288 288 288 289 289 289 290 290 289 288 288 289 290 290 291 291 291 291 291 291 290 290 290 290 290 290 290 290 289 289 289 289 290 289 289
293 293 295 296 292 292 295 291 291 290 292 295 294 293 293 290 291 290 288 289 284 284 286 285 288 290 283 289 295 297 291 294 294 292 291 291 291 291 292 292 291 291 290 289 289 288 288 287 287 287 287 287 287 288 288 288 289 289 289 289 288 288 288 289 289 290 290 290 291 291 291 291 291 291 290 290 289 289 289 289 289 289 289 289 289 289
291 293 295 294 294 295 294 293 291 292 291 294 294 293 289 286 285 283 285 281 282 284 284 285 286 285 285 293 296 294 294 293 295 295 293 292 291 292 292 292 291 291 290 289 289 288 288 288 287 287 287 287 287 287 287 287 288 288 288 288 287 287 288 288 289 289 289 290 290 290 290 290 291 290 290 290 289 290 289 289 289 289 288 288 288 288
293 294 292 295 293 294 297 292 289 288 290 291 291 289 287 283 281 279 282 282 282 285 284 285 288 284 291 293 296 296 294 293 292 293 295 294 293 292 292 292 291 290 289 289 289 288 288 288 288 287 287 287 287 287 287 287 287 288 288 288 287 287 288 288 289 289 289 289 289 290 290 290 290 289 290 289 289 289 289 289 288 288 288 287 287 287
287 288 291 292 292 297 296 298 296 294 290 291 296 293 290 289 283 279 282 280 283 284 282 285 284 285 285 291 287 289 287 289 289 289 292 294 294 294 293 292 291 290 289 289 289 288 288 288 288 287 287 287 287 286 287 287 287 287 287 287 286 286 287 288 288 288 288 288 288 289 289 289 289 289 289 289 289 289 288 288 288 287 287 287 286 286
291 292 293 296 292 295 295 296 297 294 292 292 293 294 289 288 291 286 284 284 282 283 281 280 284 290 291 288 289 287 288 288 288 289 289 291 292 293 291 290 290 289 289 289 288 288 288 288 288 287 287 287 287 286 287 286 287 287 287 287 287 286 287 287 288 288 288 288 288 288 288 288 288 288 288 288 288 287 287 287 287 286 286 287 286 286
288 289 290 292 292 293 295 294 295 297 288 290 290 287 291 294 292 282 280 279 279 282 282 287 286 289 292 290 287 288 287 288 287 288 288 290 291 291 290 291 290 289 289 289 288 288 288 288 288 288 287 287 287 286 286 286 287 287 287 287 286 286 287 287 287 287 287 287 287 287 287 287 288 288 287 286 286 286 287 287 287 286 286 286 286 286
289 290 289 291 289 290 290 292 294 293 295 290 286 291 291 294 294 289 284 282 282 281 283 284 284 287 286 286 288 288 287 288 288 287 288 289 290 289 290 290 290 290 290 289 289 289 289 288 287 288 288 287 287 286 286 286 287 287 288 287 286 286 286 287 287 287 287 287 287 287 287 287 287 287 287 286 286 287 286 286 286 286 285 285 285 285
296 288 289 289 290 291 290 294 293 294 293 292 292 299 291 286 284 289 286 279 279 278 282 283 285 286 289 290 287 288 288 290 289 289 287 288 288 289 290 291 291 291 290 289 288 288 288 288 288 287 287 287 287 287 286 286 287 287 287 287 287 287 287 287 287 287 288 288 288 287 287 287 287 287 286 286 287 287 286 285 285 285 284 284 284 284
295 289 287 289 290 291 291 292 286 289 292 292 293 292 293 291 289 285 287 286 286 283 280 282 280 283 289 292 292 293 292 293 291 288 288 289 289 290 291 291 291 290 289 289 288 288 288 288 288 287 287 286 286 286 287 286 287 286 287 287 287 287 287 287 287 287 287 287 287 287 287 287 286 286 286 286 286 285 285 285 284 284 283 283 283 283
292 293 287 287 290 290 286 290 289 290 287 287 290 289 290 289 290 291 289 286 286 283 282 282 281 286 291 295 295 295 295 294 292 290 290 290 291 291 292 292 292 291 290 289 289 288 288 288 288 288 288 287 287 287 287 287 286 286 287 287 287 286 286 286 287 287 287 287 286 286 286 285 286 285 286 285 285 284 284 283 283 283 283 282 282 282
289 289 287 285 286 286 290 293 290 293 293 291 290 288 290 287 285 283 283 287 284 285 282 281 280 287 292 288 293 294 294 295 294 293 292 292 291 291 292 293 292 291 290 290 289 289 289 288 288 288 288 287 286 286 286 287 287 287 286 287 287 287 287 286 286 287 286 286 286 286 285 285 285 285 285 284 284 283 282 282 282 282 281 281 281 281
295 291 289 285 287 288 290 290 289 289 291 292 292 291 294 292 291 287 283 283 282 283 283 283 279 286 290 289 289 290 291 291 294 293 292 292 292 292 292 293 293 293 291 290 290 289 289 288 288 287 286 286 285 286 286 286 286 286 286 287 287 287 287 287 287 287 286 286 285 285 285 285 284 284 283 283 282 281 281 280 280 280 279 279 279 280
292 288 287 287 289 289 290 290 290 290 291 290 291 291 292 290 291 290 289 287 286 284 282 283 280 286 288 289 288 288 288 288 290 293 293 293 292 292 292 292 292 292 291 290 290 289 289 288 288 287 286 286 285 286 286 286 286 287 287 287 286 286 286 287 287 286 286 285 285 284 284 284 283 283 283 282 281 280 279 279 279 279 278 278 278 277
288 290 289 285 284 286 287 289 289 290 290 289 290 291 292 293 291 287 286 287 285 286 285 284 280 287 288 287 287 287 287 287 288 290 292 292 292 292 292 292 292 291 290 289 289 288 288 287 286 286 286 285 285 286 286 286 286 286 286 286 286 286 286 286 286 285 285 284 284 284 284 283 283 283 282 281 280 278 278 278 278 277 277 277 276 276
291 288 287 283 280 279 278 279 282 283 286 289 287 288 290 290 289 287 285 286 283 285 286 285 285 290 290 290 290 289 287 287 288 289 290 292 292 291 291 291 291 290 289 289 288 287 286 286 286 286 286 286 286 286 286 286 286 286 286 286 286 286 285 285 285 285 284 284 284 283 283 283 283 282 281 280 278 277 277 277 276 276 276 275 275 275
289 289 288 288 287 286 287 286 288 292 289 286 287 287 288 291 291 290 289 286 283 284 284 287 288 289 288 289 290 291 288 289 289 288 288 288 289 291 291 291 290 289 289 288 288 287 286 286 286 287 287 286 286 286 286 286 286 286 285 285 285 286 286 285 285 285 284 284 284 283 283 282 282 281 280 279 278 277 276 275 275 274 274 274 274 274
287 287 288 287 287 286 286 287 288 290 288 289 288 286 288 287 288 286 286 285 288 285 282 288 290 286 288 290 292 292 290 288 290 290 289 288 289 289 290 290 290 289 289 288 287 286 286 286 287 287 287 286 286 286 286 286 286 286 285 285 285 286 286 285 285 284 284 284 283 283 282 281 280 279 278 277 276 275 275 274 274 273 273 273 273 272
288 286 289 288 287 288 289 288 288 289 287 288 290 289 287 288 286 284 286 289 288 286 284 289 288 287 289 292 293 294 293 291 291 291 292 291 290 290 289 289 289 288 288 286 287 287 287 286 287 287 287 286 286 285 286 286 286 286 286 286 286 286 285 285 285 284 284 283 283 282 281 279 278 277 276 275 274 274 273 273 272 272 272 272 272 271
288 287 287 288 287 288 288 287 287 287 287 288 287 288 289 288 286 287 288 289 288 287 290 291 290 289 293 293 293 293 294 294 294 292 289 289 289 289 288 288 288 288 287 287 288 288 288 287 287 287 287 286 286 285 285 286 286 286 285 285 285 285 285 285 284 284 283 283 282 280 279 278 277 276 275 274 273 272 272 272 271 271 271 270 270 270
289 285 287 287 285 286 288 287 286 286 286 286 288 289 289 287 285 286 287 288 288 287 288 288 288 288 293 294 294 291 289 290 289 289 289 290 290 288 288 288 288 288 288 289 289 289 288 288 288 287 287 286 286 286 285 286 286 286 286 285 284 284 284 284 284 283 283 282 280 278 277 276 275 274 273 273 272 271 270 270 270 270 269 269 269 268
288 286 287 286 284 285 285 286 284 285 285 285 286 288 289 286 284 285 284 287 286 285 286 286 284 286 291 289 290 288 289 289 290 290 289 289 289 288 288 288 288 289 289 289 289 289 288 288 288 287 286 286 286 286 286 286 286 285 285 285 284 284 283 283 283 282 282 280 278 277 276 275 274 273 272 271 270 269 269 268 268 268 268 268 268 268
286 286 284 285 282 283 279 283 283 282 282 281 282 286 289 289 290 290 290 289 288 289 286 284 285 290 292 289 289 287 288 287 289 289 289 289 289 289 288 288 289 289 290 290 288 288 288 288 288 288 287 287 286 286 286 287 286 285 285 284 284 282 282 282 282 281 279 278 277 276 275 274 273 272 270 270 269 268 267 267 268 267 267 267 267 267
286 286 285 287 281 280 276 281 283 281 275 278 286 291 291 288 289 287 287 288 289 289 289 290 289 289 289 288 290 289 286 287 290 291 292 292 290 288 289 289 290 290 290 290 289 289 289 289 288 288 288 287 287 286 288 287 286 286 285 284 282 281 281 281 280 280 278 276 276 275 273 272 272 271 270 269 268 268 267 267 267 267 267 267 267 267
285 285 285 286 282 278 279 281 279 274 278 285 280 280 282 286 289 289 289 290 290 290 289 288 287 286 288 290 291 292 290 288 287 289 288 289 291 290 289 288 289 289 289 289 289 289 289 289 288 288 287 286 286 287 286 285 285 284 283 282 280 281 280 280 279 278 276 275 274 273 272 271 271 270 269 267 267 267 267 267 267 266 267 267 267 266
285 285 284 282 281 279 276 279 273 276 284 283 283 281 282 283 286 285 284 287 289 289 289 288 290 288 286 287 287 286 287 284 284 284 287 288 289 290 288 288 289 288 288 288 288 288 288 288 287 287 286 287 286 286 285 285 285 283 282 281 280 279 279 279 278 277 276 274 273 272 272 271 270 269 268 267 267 266 267 266 266 266 266 265 266 266
288 286 286 282 284 278 279 278 279 284 283 286 283 283 282 284 284 284 281 286 289 289 288 288 289 287 285 285 283 283 283 285 285 287 286 285 286 288 289 289 289 288 289 289 289 289 289 288 287 287 286 286 285 284 284 284 283 282 280 279 279 278 278 277 277 276 275 273 273 272 271 271 270 268 268 267 266 266 266 266 265 265 265 264 265 265
287 286 286 283 281 283 278 277 277 278 275 281 288 284 286 286 288 288 287 284 285 286 288 288 287 288 286 283 282 281 282 283 282 285 286 284 284 285 286 286 286 287 287 287 287 287 286 286 286 285 285 284 284 284 284 282 281 280 278 278 277 277 276 276 277 276 274 274 272 271 271 270 269 268 267 266 266 266 267 266 266 265 264 264 264 264
284 285 285 285 282 281 279 277 277 275 278 284 282 280 281 281 284 285 284 280 284 281 286 287 287 287 285 283 281 282 283 281 282 286 286 285 284 285 285 285 285 286 286 286 286 285 284 284 284 284 283 283 282 282 282 281 280 279 278 277 276 276 276 276 277 275 274 274 272 271 270 269 268 267 266 266 266 265 265 265 264 265 264 263 263 263
281 283 283 280 280 282 280 278 276 281 280 282 280 281 281 280 281 285 275 276 282 280 283 285 287 285 284 284 282 283 283 280 283 285 286 285 285 284 285 285 285 284 284 284 283 284 283 283 282 281 282 282 282 281 279 279 279 278 278 277 276 275 275 276 277 276 275 273 271 270 268 268 266 266 265 265 265 264 264 264 263 262 263 263 263 263
279 278 281 279 281 281 281 279 281 281 285 280 280 281 280 280 284 278 274 279 281 281 281 285 285 285 284 282 283 282 284 285 285 284 282 283 282 282 282 283 285 285 284 283 282 282 282 283 283 283 282 283 282 279 278 278 278 277 278 276 275 275 276 277 277 275 273 272 270 268 267 267 265 265 264 265 263 264 262 263 263 263 262 261 262 261
277 278 277 281 279 279 281 278 278 282 285 279 278 281 281 283 276 276 284 283 283 282 281 283 283 283 283 283 284 285 285 282 281 281 281 282 284 283 282 281 281 281 281 282 281 281 282 282 283 283 282 282 280 278 277 277 277 277 277 275 275 276 278 277 275 273 271 270 269 267 266 265 264 264 262 262 262 262 261 262 261 261 261 262 261 259
278 277 275 278 280 279 278 277 277 273 282 280 281 280 281 280 282 284 282 280 281 282 280 280 282 282 283 283 284 284 281 281 281 282 282 282 282 282 282 281 281 282 281 280 280 280 281 281 281 281 282 280 278 276 276 276 276 277 276 274 276 277 276 275 273 271 270 268 267 265 263 263 262 261 260 260 260 260 261 261 259 259 259 259 259 259
285 277 277 280 284 276 277 274 275 283 281 282 283 281 282 285 287 283 284 281 281 279 281 282 281 282 283 283 283 282 281 281 281 282 281 281 281 281 281 282 282 282 282 281 282 281 280 281 281 281 281 279 276 276 275 275 276 276 275 275 278 276 273 271 270 269 267 266 264 263 262 261 260 260 260 260 260 259 259 260 260 259 260 260 260 261
284 280 282 279 284 279 278 283 283 281 283 284 285 284 285 285 283 282 284 284 282 281 281 282 282 281 281 282 282 282 281 281 281 282 282 282 282 281 281 281 281 282 282 281 281 280 279 280 281 280 279 277 275 275 274 275 276 275 274 276 276 272 270 268 267 266 265 264 263 262 261 260 260 259 259 259 259 260 260 258 258 260 261 259 260 261
278 280 280 281 280 281 280 281 281 280 281 283 284 283 283 283 279 280 282 282 283 283 282 282 283 282 281 282 281 281 282 282 281 281 281 282 283 283 282 281 280 281 280 280 279 278 278 279 279 278 277 275 274 273 273 273 275 274 275 276 273 271 268 266 265 265 264 263 262 261 260 259 259 258 258 258 260 260 262 261 260 261 262 261 261 261
277 278 278 279 280 278 276 279 279 280 281 282 283 283 281 281 281 280 280 283 283 282 281 283 283 282 282 281 282 282 282 282 281 281 281 282 281 281 281 281 281 281 280 278 280 277 276 276 276 276 276 275 273 272 272 271 273 275 276 271 270 268 266 265 264 264 264 262 262 260 259 259 261 260 258 258 259 260 260 260 260 260 260 261 261 261
278 280 278 278 278 278 278 278 278 277 278 280 282 282 283 283 281 280 281 281 281 281 281 282 281 281 281 280 281 282 282 282 281 281 281 281 281 281 280 281 281 280 280 280 279 276 276 276 277 276 276 276 276 272 271 271 271 272 270 269 268 266 264 264 264 265 264 262 262 261 260 261 260 260 262 260 260 260 260 260 260 260 261 261 262 261
281 281 273 278 276 277 276 276 277 278 280 281 280 281 282 284 283 281 280 280 280 280 280 280 281 281 281 281 281 281 281 282 282 282 282 281 281 281 281 281 281 281 281 278 277 275 276 276 276 277 276 277 277 273 270 270 270 270 268 268 265 264 264 264 264 264 264 262 262 261 260 261 261 261 262 261 259 260 261 261 260 260 260 261 261 261
279 277 278 277 273 274 275 277 278 275 276 281 281 282 282 282 282 281 280 280 280 281 281 280 280 280 280 281 282 281 280 282 282 282 281 281 281 281 281 281 281 280 280 279 278 275 276 276 276 276 276 277 277 273 271 269 269 268 267 265 264 263 264 264 264 263 263 262 261 261 260 260 260 259 260 260 261 260 259 259 262 261 260 260 262 264
279 281 279 276 277 276 280 280 281 283 282 284 284 284 283 283 282 281 281 281 281 282 282 282 281 280 279 279 280 281 281 282 283 282 280 280 281 281 281 281 280 280 279 278 276 274 274 275 275 275 275 276 275 272 270 269 268 266 265 264 263 263 265 264 264 264 263 261 261 261 260 260 260 259 260 260 259 260 260 260 261 265 266 266 266 267
Wind_Speed
1 7 7 9 10 10 12 14 9 4 3 5 2 2 6 7 10 1 1 3 1 3 10 12 12 12 14 5 5 5 4 4 5 5 4 4 4 4 3 3 3 3 3 2 2 4 4 5 5 4 4 4 6 7 8 8 9 9 7 6 7 6 5 4 5 6 6 7 8 9 10 10 9 9 9 10 10 10 10 11 11 11 10 10 11 11
3 8 11 12 3 7 9 6 3 2 2 4 4 5 6 5 10 2 1 3 1 4 3 2 7 11 12 3 3 4 5 6 6 6 5 5 4 4 5 5 4 4 4 3 3 4 4 4 4 4 4 5 6 8 8 9 8 8 8 8 6 5 6 7 7 7 8 8 8 9 8 8 8 8 9 10 9 9 9 11 11 11 11 11 11 11
7 11 11 6 6 5 4 5 5 8 6 3 6 4 5 8 5 5 2 2 2 3 9 2 8 11 7 3 3 3 4 2 2 3 3 5 5 5 5 5 5 5 5 4 4 3 4 4 4 4 4 5 5 6 8 7 8 8 8 8 7 7 7 8 7 8 8 8 9 10 9 10 10 10 9 10 10 10 11 11 12 11 11 11 11 11
6 9 12 6 6 7 4 4 6 4 3 6 5 5 9 1 2 5 3 2 3 4 2 2 6 10 2 2 3 2 2 1 1 2 1 2 3 4 5 4 5 6 6 5 4 4 4 4 4 4 4 4 4 6 7 6 7 6 7 7 7 8 8 8 9 10 11 12 12 12 12 12 11 10 10 11 11 11 12 13 12 11 11 12 11 12
9 4 3 9 7 8 7 5 7 6 8 7 8 9 10 5 8 9 2 1 2 4 1 5 9 12 11 9 5 4 2 1 1 1 1 1 2 2 2 0 0 4 4 5 4 4 4 5 5 5 5 4 6 7 6 6 5 4 6 7 8 8 8 7 8 9 9 11 12 11 12 11 12 10 10 10 11 10 11 11 11 10 11 11 11 11
8 4 5 9 7 7 6 5 9 8 9 5 10 13 12 8 9 4 1 2 5 5 5 3 6 6 2 4 3 5 3 3 2 3 4 4 3 3 4 4 2 0 1 2 3 3 4 5 5 5 6 7 7 7 6 5 5 5 5 6 8 7 6 6 5 3 3 6 8 9 9 10 9 10 9 10 9 9 9 10 8 10 11 11 11 11
3 4 6 7 8 7 8 8 6 10 7 5 4 10 14 12 6 4 5 4 5 6 2 2 8 5 3 2 5 5 4 4 4 5 6 6 6 6 6 6 6 5 4 2 2 3 4 4 5 5 6 6 6 5 4 4 5 6 6 7 7 6 6 5 5 5 5 7 8 10 10 10 10 12 9 8 8 8 8 8 9 9 10 10 11 11
5 5 4 3 7 7 6 8 7 11 6 7 2 1 5 6 8 9 8 9 4 4 2 2 4 7 7 1 4 4 5 5 6 8 8 8 9 9 8 7 6 6 5 5 4 3 3 3 4 5 4 5 5 4 4 5 5 6 7 7 7 6 6 5 5 5 5 8 8 10 11 10 10 11 11 10 9 8 8 9 9 8 9 10 10 10
7 7 8 8 8 6 10 5 9 12 8 1 2 1 4 6 6 6 6 6 2 3 6 6 4 4 7 4 4 5 5 8 11 11 12 12 11 11 10 8 7 6 5 5 5 4 4 4 3 3 4 4 4 4 4 4 4 5 7 8 9 9 8 7 7 7 7 8 8 9 10 12 10 10 10 8 8 8 8 10 8 8 8 9 10 10
2 2 6 8 8 9 4 3 5 11 10 2 4 8 6 6 5 3 4 4 2 4 9 9 10 7 9 6 5 4 6 11 12 14 14 14 15 13 11 10 9 6 5 4 3 3 3 2 2 2 2 4 4 3 4 4 4 5 6 8 10 10 7 7 8 8 9 8 8 10 11 14 10 9 9 8 8 8 8 9 9 8 7 7 8 9
1 1 3 3 8 2 6 5 3 3 4 10 6 9 7 6 5 3 2 1 1 7 10 7 12 9 7 7 9 7 8 5 8 9 9 12 12 12 11 11 10 8 7 6 5 4 3 2 2 1 3 4 4 3 4 4 5 5 6 8 11 9 7 7 8 8 9 8 8 9 10 12 12 10 10 9 9 8 8 8 8 7 7 7 7 7
2 2 3 1 3 4 5 7 6 2 3 5 3 5 6 3 3 2 1 2 5 7 3 5 2 6 10 3 8 4 5 4 11 15 17 17 17 15 13 11 10 9 8 7 6 6 5 4 3 3 4 4 4 4 4 4 4 5 6 8 11 9 8 7 8 8 8 8 8 9 10 11 10 9 9 10 10 9 9 7 7 6 6 7 7 7
4 7 2 3 3 5 6 8 4 4 2 3 5 7 7 3 1 5 3 5 10 7 2 3 2 3 16 8 4 2 4 4 6 7 16 18 18 16 13 12 10 8 8 7 7 6 6 6 6 6 5 5 5 5 5 5 4 5 7 8 11 10 7 7 7 8 8 8 8 8 9 9 8 9 10 9 9 8 7 6 6 6 6 6 6 7
4 4 2 4 3 6 10 10 6 3 8 6 10 9 7 5 5 5 4 2 4 1 1 2 2 8 4 7 11 7 4 3 2 2 4 16 18 17 14 12 10 8 9 8 7 6 7 6 6 6 6 5 5 5 5 5 5 5 6 7 11 10 7 7 7 8 9 8 7 7 8 8 8 9 9 8 8 7 6 6 6 6 6 6 6 6
6 4 9 12 7 10 12 12 10 6 13 11 2 10 6 6 4 5 5 6 3 1 3 2 3 4 5 3 3 2 2 2 3 2 1 8 12 13 11 9 9 10 9 7 7 7 7 7 7 6 6 6 5 6 5 5 5 5 7 8 10 11 8 7 7 8 9 8 8 7 7 7 7 8 7 7 7 7 7 6 6 6 5 5 5 5
11 6 4 3 3 10 14 0 6 8 5 3 1 3 0 7 0 4 1 1 1 1 3 4 6 1 4 3 1 1 1 1 2 2 3 8 8 9 9 12 11 10 10 8 8 8 8 7 7 6 6 6 6 6 5 6 6 6 7 8 9 10 9 8 8 8 8 8 7 8 8 8 8 7 7 7 6 6 6 6 6 5 5 4 4 4
3 7 4 2 1 5 4 4 2 4 8 8 6 8 6 5 4 4 2 3 1 1 9 5 5 5 2 3 3 2 2 3 2 5 5 10 11 11 11 11 11 10 10 9 9 9 9 7 7 6 7 6 6 6 7 7 7 8 8 9 10 9 8 8 8 8 8 8 8 8 8 7 7 7 8 7 8 7 6 5 5 5 5 4 4 3
4 2 1 4 6 1 2 3 4 4 1 10 7 8 4 1 4 2 5 2 2 6 5 5 10 7 6 7 5 4 5 6 7 8 8 9 10 13 12 11 12 12 10 10 9 8 8 8 9 7 6 7 8 8 8 8 6 6 7 9 11 10 10 8 8 8 8 8 9 8 8 7 7 7 7 7 7 5 5 5 5 4 4 4 3 3
4 4 4 2 3 2 1 4 3 3 5 3 1 4 8 5 5 5 1 6 4 6 5 6 7 10 11 8 4 7 10 12 11 9 9 12 13 15 13 13 11 10 10 10 10 9 8 8 9 9 9 8 7 7 7 7 7 6 6 7 8 10 9 9 7 7 6 7 6 6 7 7 6 6 6 6 6 5 6 6 5 5 4 3 3 3
2 7 2 1 2 3 2 6 11 8 2 1 2 4 4 3 3 7 6 1 1 7 1 4 6 7 10 9 13 13 15 14 12 10 13 16 18 16 15 15 14 14 12 10 9 9 9 10 11 11 10 10 9 9 8 8 7 8 7 8 7 7 8 8 8 7 8 7 6 7 7 6 6 6 6 5 5 6 6 5 4 4 4 3 3 3
5 0 6 4 3 4 7 9 12 15 12 6 6 8 3 2 3 3 1 3 3 4 5 8 8 3 5 6 13 14 13 13 16 16 13 14 16 16 16 16 14 13 11 11 10 11 11 11 10 9 8 8 7 7 7 8 9 8 7 8 8 10 9 9 8 7 7 6 7 7 7 7 6 6 6 6 6 6 5 4 4 4 3 3 3 3
3 5 8 6 5 9 4 2 5 1 7 10 15 15 16 10 6 6 8 5 1 3 5 3 11 1 2 2 1 0 3 4 12 13 12 13 14 15 14 15 13 14 11 12 12 11 10 10 10 9 7 7 8 9 10 8 8 8 9 8 8 8 8 9 8 7 7 6 6 7 7 7 6 6 6 6 5 5 5 4 4 3 3 3 3 3
0 2 1 6 6 7 1 2 1 3 3 3 4 7 11 9 7 6 10 5 2 2 4 1 4 6 3 2 2 1 1 1 5 6 8 10 13 14 12 11 10 10 11 11 11 10 9 10 10 10 11 11 12 11 11 9 8 9 9 9 8 9 9 8 8 7 7 7 7 8 7 7 6 6 6 6 5 5 4 4 4 3 3 3 2 2
5 2 5 1 3 0 1 1 1 1 2 3 6 2 2 11 11 8 3 4 7 5 4 2 5 4 1 1 2 1 2 3 3 8 9 7 8 10 12 13 13 10 9 9 8 8 9 10 9 9 11 11 11 11 11 9 9 8 8 8 8 10 9 8 8 7 7 7 8 8 8 7 6 6 6 5 4 5 4 3 3 3 2 2 2 2
7 6 5 4 2 2 2 2 3 2 3 5 6 7 7 2 2 2 4 1 3 10 7 6 15 2 3 0 0 1 2 2 5 6 8 9 8 10 12 12 9 9 9 11 11 12 10 10 11 12 12 12 12 11 10 10 10 10 9 9 9 9 9 8 8 8 8 9 9 8 7 7 6 6 6 5 4 5 4 3 3 2 2 2 1 1
6 3 9 11 13 11 11 12 13 10 10 5 1 2 9 13 10 4 6 5 8 2 11 10 13 1 1 0 4 2 2 3 4 5 5 5 7 10 11 11 11 11 11 12 11 11 13 13 10 10 12 11 11 11 11 11 10 10 9 10 9 9 9 9 8 9 9 9 9 7 8 7 6 6 6 5 5 4 3 3 2 2 2 1 1 1
4 1 7 12 10 9 2 2 4 8 7 8 9 9 12 12 13 12 3 4 11 4 10 16 10 4 5 5 6 7 5 6 5 7 9 9 9 9 9 10 10 11 12 14 14 10 8 10 14 14 13 12 12 12 11 11 11 10 10 11 10 9 10 10 9 10 9 8 8 8 7 6 6 5 5 5 4 3 3 2 2 2 2 1 0 1
1 6 13 10 8 1 3 2 2 2 10 13 11 11 10 13 13 14 13 13 6 3 14 13 8 11 8 9 10 9 6 5 7 6 7 5 9 11 12 11 11 9 9 7 7 10 14 14 14 14 14 13 12 12 11 11 11 11 11 12 11 10 9 7 9 9 9 8 7 7 7 6 5 5 5 4 4 3 2 2 2 2 2 1 1 1
4 7 8 8 12 6 2 5 1 2 1 2 10 14 16 14 12 17 16 14 8 12 17 5 12 12 13 11 13 10 11 10 10 13 13 12 8 8 9 12 14 15 12 12 14 13 13 14 14 15 14 13 12 13 13 11 9 8 8 9 9 9 9 9 9 9 9 8 8 7 6 6 5 5 5 4 4 3 2 2 2 2 2 1 1 1
3 6 1 4 8 7 6 5 3 3 0 3 5 7 9 11 14 14 15 17 15 15 16 12 7 12 10 4 13 13 7 6 3 4 4 4 10 11 11 12 14 13 14 16 17 15 14 14 14 14 13 13 14 14 12 10 10 12 12 11 9 9 8 8 8 9 8 8 7 7 6 6 5 5 5 4 4 3 3 3 2 2 2 2 1 1
3 2 8 4 4 6 8 5 5 6 4 7 11 11 7 2 2 12 13 12 11 11 11 11 12 17 3 8 7 4 5 4 4 6 7 5 5 8 10 11 12 14 15 14 12 13 13 13 12 12 13 14 14 14 12 13 12 11 11 10 9 9 8 8 9 8 9 8 7 7 7 6 6 5 5 4 3 3 3 3 2 2 2 2 1 1
2 2 3 4 6 5 4 8 6 4 4 10 15 17 13 8 12 12 6 9 9 12 16 15 14 13 5 5 4 3 4 6 6 5 5 4 7 9 10 10 12 13 14 13 11 10 10 10 11 12 13 14 14 14 14 13 11 10 11 10 10 8 8 8 9 9 8 7 8 7 7 6 6 6 5 4 4 4 3 2 2 2 2 1 1 1
4 4 5 4 5 2 2 1 7 6 1 7 19 13 10 16 15 9 13 14 15 15 13 11 14 13 5 9 8 4 6 4 6 7 6 4 6 8 10 11 12 12 12 11 11 11 11 11 12 13 13 12 13 14 16 14 11 12 11 11 10 8 8 8 9 8 8 8 8 8 6 6 6 5 5 4 4 3 3 2 2 2 2 2 1 1
4 5 3 2 3 1 2 4 5 4 6 14 2 8 19 20 19 16 15 17 19 14 12 8 6 2 6 7 10 9 9 10 9 7 5 6 7 8 9 9 9 9 9 10 11 10 10 9 8 10 12 12 15 16 14 12 12 11 9 8 8 9 8 9 8 8 8 8 7 7 7 6 6 5 5 4 4 3 3 3 3 2 2 2 2 2
7 5 4 1 3 2 3 6 5 10 17 1 0 3 5 1 7 17 19 18 15 10 8 9 7 6 6 8 7 8 7 4 2 4 5 5 6 6 8 8 9 9 9 10 10 10 10 11 10 10 9 11 12 10 9 9 8 8 8 9 9 8 9 8 9 8 8 8 7 7 6 7 6 5 5 5 4 4 4 4 3 3 3 2 2 2
7 7 3 2 3 4 2 7 5 7 1 2 1 3 2 2 0 2 8 13 9 10 13 13 15 7 5 5 2 3 4 2 2 2 4 3 4 6 7 9 10 9 9 9 10 9 10 10 11 11 11 9 9 9 10 11 10 10 9 8 9 9 8 8 8 8 8 7 8 8 7 7 6 5 6 5 5 5 5 4 4 3 3 2 2 2
10 4 4 4 3 5 4 7 10 6 11 9 4 5 8 6 8 8 7 8 11 11 12 12 12 7 7 4 4 4 4 3 1 5 5 7 7 7 9 8 6 8 8 7 8 8 8 8 7 7 7 8 10 10 11 9 9 9 9 9 6 7 8 7 8 9 8 7 8 9 8 8 7 6 6 6 6 5 5 5 4 3 3 2 2 2
3 9 5 6 6 7 3 4 3 4 12 11 5 2 5 1 3 3 5 6 2 3 7 10 11 11 9 6 5 5 5 3 5 8 9 11 9 10 4 1 1 3 4 4 4 3 4 5 5 6 7 9 10 9 8 9 10 10 9 8 9 8 9 7 9 9 8 9 8 9 8 8 7 7 7 6 6 6 5 4 3 3 3 3 3 3
2 2 1 9 3 5 7 8 8 10 8 0 1 1 1 1 3 5 2 8 2 6 9 11 10 4 9 11 8 7 6 5 8 6 4 7 7 7 7 6 5 5 5 6 8 9 9 8 9 9 8 9 9 9 9 10 10 9 8 10 10 9 9 10 10 10 11 10 9 8 8 7 7 7 7 7 6 5 5 5 4 3 3 2 2 2
4 4 4 4 8 8 6 8 10 4 6 0 3 3 2 2 1 2 4 3 1 4 3 3 4 5 8 9 10 8 7 7 8 1 4 7 7 7 7 7 7 5 4 3 2 4 8 9 10 8 9 10 10 10 11 9 9 11 12 9 9 9 9 11 13 11 8 8 8 7 6 6 7 7 6 6 5 5 4 4 3 3 3 2 2 2
4 2 5 13 9 10 12 10 3 5 2 2 4 3 3 3 2 6 8 2 4 4 5 5 3 5 8 9 9 7 9 2 2 3 3 5 5 4 3 3 2 2 4 5 5 6 6 7 8 9 11 9 9 10 9 8 8 9 9 8 8 10 13 12 8 8 8 7 7 7 7 6 7 7 6 5 6 5 4 3 3 3 3 2 2 2
0 3 2 2 8 11 11 7 8 6 2 6 0 4 5 5 5 8 1 2 7 7 4 5 6 6 8 10 9 8 3 4 2 3 3 5 6 4 5 4 3 2 2 3 5 6 5 5 5 4 3 5 7 9 8 8 12 9 8 8 10 15 11 7 7 8 6 7 8 7 6 6 5 5 5 5 5 5 4 3 3 3 3 2 2 3
9 7 7 8 2 1 1 7 2 9 2 7 9 5 4 4 2 5 4 1 1 2 8 6 6 8 9 8 8 4 5 3 3 4 3 4 4 4 6 7 6 7 6 5 5 6 6 6 7 8 8 6 7 8 8 12 13 11 11 11 20 12 7 7 7 7 7 7 8 8 7 6 7 5 4 5 5 5 4 4 3 3 3 3 3 4
6 4 4 5 6 5 8 8 7 2 7 11 14 8 6 4 2 6 6 5 2 3 5 5 6 8 9 7 8 5 4 5 3 3 2 2 3 1 2 4 4 3 4 4 4 8 7 6 5 6 6 6 7 7 8 13 13 12 12 19 12 6 7 7 6 8 10 11 12 9 7 7 6 5 5 6 5 5 4 4 3 3 3 3 3 3
8 8 2 4 5 7 5 2 1 1 7 12 3 4 2 5 2 8 5 6 6 4 4 3 6 6 8 7 5 6 5 6 5 6 6 6 6 6 6 8 7 7 7 8 7 6 6 8 7 6 4 5 7 7 9 9 13 13 15 14 7 11 12 11 11 12 12 12 11 8 6 6 5 5 5 5 5 5 4 4 4 3 3 3 3 3
5 2 0 2 2 1 3 2 2 1 3 9 2 1 2 4 1 1 5 4 6 4 7 7 7 7 8 6 5 3 5 6 7 5 5 4 5 6 4 2 3 3 3 2 2 7 7 5 3 5 8 6 6 7 8 9 10 14 17 4 7 9 12 12 13 13 14 9 6 6 6 6 4 4 4 5 4 4 3 4 4 4 3 3 3 3
3 3 1 3 1 3 4 6 5 4 2 7 7 3 1 1 1 2 3 2 3 4 5 5 2 4 5 7 8 7 7 7 6 6 7 6 6 6 6 7 6 7 8 9 10 7 6 8 8 10 10 11 9 9 9 12 11 12 3 7 7 11 11 12 14 12 8 8 6 6 6 7 6 5 4 4 4 3 3 3 3 3 4 4 4 3
2 6 2 2 3 3 1 4 2 3 3 3 3 4 6 6 5 4 2 1 1 1 3 3 3 3 5 5 9 7 7 5 7 7 7 8 7 7 7 8 8 6 8 8 5 8 7 9 11 12 11 12 9 10 10 12 11 11 6 6 10 12 12 13 13 11 9 9 7 7 7 7 7 6 4 5 5 4 4 4 4 5 5 5 4 3
3 6 4 5 3 1 3 2 0 1 2 5 5 7 7 4 4 5 4 2 2 3 4 2 5 4 7 8 7 7 7 7 8 9 8 7 7 6 8 8 8 9 8 8 8 10 11 12 12 13 12 13 8 11 11 13 11 9 9 8 10 12 14 9 13 11 10 7 5 5 5 5 5 5 4 4 4 3 3 4 5 5 5 5 4 4
3 7 3 3 1 4 5 7 8 3 2 5 9 11 9 7 6 3 3 3 5 7 6 6 5 5 4 3 5 7 7 9 8 8 9 8 8 9 8 8 6 6 6 5 4 8 9 9 12 13 13 12 6 9 12 13 11 9 9 9 12 12 14 11 8 8 6 6 6 5 5 5 4 3 3 3 3 3 4 6 10 7 5 4 9 14
10 10 8 6 8 4 4 7 8 6 5 4 6 7 8 4 6 7 8 9 9 8 6 6 7 5 6 8 7 8 10 9 9 7 8 7 8 8 9 11 9 9 10 6 7 9 11 12 12 10 11 10 7 9 10 10 10 10 10 10 10 11 11 10 8 6 5 6 6 5 5 4 4 4 3 3 2 2 3 2 5 13 16 14 11 12
Wind_Direction
350 194 195 212 216 196 203 207 229 54 89 82 123 205 241 256 267 135 179 99 318 279 247 253 259 259 263 163 144 151 159 169 176 182 176 166 152 146 131 130 114 103 88 54 52 45 32 27 21 16 15 20 46 38 35 41 36 32 37 53 49 26 28 65 80 75 81 84 85 71 64 67 57 56 53 52 44 42 40 35 37 36 35 32 33 33
222 218 226 225 217 202 210 196 107 128 113 228 236 231 247 209 264 271 129 97 149 233 276 194 255 256 255 125 131 160 183 199 191 184 178 163 160 145 151 145 143 124 124 129 103 77 63 48 37 43 38 24 49 36 39 41 37 34 37 43 35 31 44 50 57 72 69 63 68 83 75 75 64 59 56 55 46 43 41 39 37 36 34 35 36 31
202 219 233 213 83 84 75 174 200 220 212 176 243 234 260 253 264 271 228 140 183 183 264 173 257 261 246 118 135 181 204 196 223 248 188 169 163 162 159 152 144 143 133 121 103 94 88 73 61 65 51 49 51 53 50 45 49 44 46 41 37 41 48 47 53 68 75 78 80 86 90 86 83 69 69 68 60 53 51 45 41 38 37 36 38 35
226 233 237 108 135 129 94 161 185 187 229 223 203 225 239 249 186 262 127 121 170 232 332 16 283 270 182 162 164 146 225 175 315 281 273 278 188 168 160 153 149 138 137 131 121 109 94 84 79 67 60 49 57 55 54 45 52 55 55 47 50 52 54 60 61 75 81 85 89 88 91 88 85 87 79 73 65 59 55 51 47 44 43 43 44 38
214 56 8 148 165 186 177 163 171 195 227 211 225 233 250 206 224 247 318 135 109 233 288 289 277 272 231 202 183 139 129 152 175 225 251 257 310 346 4 339 126 135 128 122 124 112 100 84 57 52 45 44 51 49 40 30 38 51 60 64 63 63 61 68 81 87 97 103 100 102 100 98 95 85 77 73 63 59 59 58 47 42 43 45 47 44
246 75 125 137 169 189 170 180 200 203 242 211 214 229 241 242 243 189 98 228 251 245 167 231 287 260 98 233 206 129 165 184 149 218 202 192 192 209 197 179 148 75 7 131 118 92 71 66 67 57 47 47 51 48 33 28 36 48 64 71 78 81 76 70 58 62 109 111 114 117 110 99 88 78 66 63 65 60 57 57 55 49 45 45 46 45
254 115 166 159 167 180 203 219 193 197 238 238 240 205 230 241 239 181 183 171 243 251 101 290 231 272 140 166 171 153 175 174 156 221 202 192 194 200 198 180 177 168 164 138 118 117 108 90 90 71 56 51 58 50 40 51 57 65 71 70 74 81 83 71 75 65 77 79 79 83 85 91 94 96 81 81 77 75 69 64 58 54 46 42 46 43
149 157 152 161 158 174 189 224 187 187 213 240 65 283 206 206 204 207 197 212 257 45 95 207 237 262 280 208 89 133 181 194 197 205 205 200 195 198 193 186 180 174 170 161 147 130 104 101 91 89 70 60 55 52 56 59 59 67 71 77 80 80 80 74 77 72 75 92 91 93 91 88 89 92 99 90 81 77 75 70 61 58 51 45 44 46
174 164 182 178 194 183 215 226 129 187 198 296 18 215 163 196 202 172 204 220 276 319 253 177 156 250 240 203 116 154 191 212 215 197 199 197 196 194 192 187 182 178 171 164 157 150 136 119 90 83 81 64 65 49 54 59 62 71 76 80 83 82 80 74 77 86 81 88 95 97 100 95 90 95 96 94 89 83 77 74 65 60 57 53 48 45
323 226 203 187 172 210 149 20 179 169 215 109 131 91 86 82 75 160 209 208 192 230 244 200 178 237 263 192 176 165 243 231 206 192 194 194 190 188 188 184 183 176 170 173 160 144 130 107 87 57 79 84 64 59 67 74 78 78 82 85 85 79 78 80 82 86 86 86 93 94 98 104 105 104 100 96 91 84 78 73 67 60 57 52 51 46
6 240 336 189 210 146 103 53 15 12 42 130 165 108 94 82 94 94 74 191 199 243 244 195 185 216 283 190 202 189 216 203 147 171 188 187 186 191 190 184 181 178 173 174 170 162 142 104 112 118 111 94 94 80 81 82 85 85 88 92 86 82 84 81 83 85 82 81 86 96 100 104 107 107 105 101 90 87 81 77 70 66 61 55 53 49
160 96 175 213 61 104 102 92 41 49 144 160 155 143 127 92 139 153 117 219 238 254 91 17 209 215 230 214 216 180 79 141 163 178 182 182 187 187 186 185 181 177 175 171 171 166 160 160 150 151 132 123 111 106 99 97 96 97 96 102 97 88 86 84 83 84 84 86 89 95 100 100 101 103 100 95 93 86 84 80 79 76 71 62 56 51
235 204 128 96 268 149 152 106 80 104 209 210 151 156 186 173 139 212 167 221 213 240 95 47 142 205 238 243 12 45 176 164 208 185 181 179 182 184 185 182 176 174 172 174 174 167 173 173 167 165 147 142 143 127 122 117 114 111 106 110 105 97 92 91 95 96 97 97 95 97 98 95 94 93 93 92 91 88 85 82 79 74 71 63 58 49
238 92 171 174 112 243 178 166 144 175 194 193 182 176 182 194 197 246 195 306 304 196 23 55 128 258 354 250 252 264 99 100 119 24 184 178 176 180 178 176 173 174 180 179 174 176 178 176 171 169 162 158 148 146 138 138 131 126 119 116 109 110 106 108 106 105 102 96 97 97 97 98 98 95 93 91 91 89 85 81 77 73 70 67 61 53
230 223 211 150 224 154 201 212 178 152 163 198 197 183 209 190 170 209 188 220 236 76 104 246 166 237 167 197 3 344 342 24 66 41 49 164 173 172 165 158 165 179 184 178 177 182 182 179 175 171 169 161 159 154 151 149 146 135 125 122 121 120 122 120 116 112 109 105 99 98 98 99 99 97 94 91 90 91 92 87 85 79 76 77 70 62
225 265 44 155 356 148 189 77 90 101 112 136 233 16 341 223 170 253 24 312 70 181 182 175 231 254 230 115 103 13 142 86 114 104 157 157 153 147 157 177 185 186 181 177 181 185 186 181 176 174 173 170 162 162 161 159 157 148 136 132 128 127 130 129 125 119 116 112 108 102 97 95 95 97 99 98 96 92 91 94 90 84 76 72 71 65
80 234 91 143 85 188 172 130 148 175 198 172 145 204 198 12 111 100 127 87 30 306 254 146 247 235 305 212 133 174 128 176 144 159 175 167 166 171 184 187 188 186 179 177 184 186 183 179 184 185 179 172 169 171 173 170 166 156 145 138 131 131 133 134 129 124 122 118 113 107 105 107 106 106 104 106 105 102 96 91 85 81 75 68 59 52
180 165 112 148 194 269 19 299 75 44 89 106 217 199 73 7 351 203 245 119 217 252 266 149 219 223 145 248 116 166 198 199 198 182 185 177 172 185 194 190 191 188 181 177 182 183 180 183 185 185 185 182 179 174 172 170 170 162 152 145 140 143 140 139 135 130 128 124 117 118 118 113 110 108 109 110 110 104 100 93 85 80 72 59 53 49
186 238 145 324 46 71 321 195 108 34 348 227 167 124 164 192 208 182 230 241 193 236 265 203 223 245 206 211 131 202 198 202 200 180 174 188 191 198 194 195 192 180 173 180 184 178 180 185 186 188 188 183 180 177 172 170 169 161 151 149 149 145 145 142 138 132 125 127 127 129 127 124 118 113 108 106 104 100 94 85 81 79 76 71 53 40
226 225 146 19 140 133 185 194 194 174 186 59 142 185 2 315 220 161 207 306 177 254 141 256 127 249 185 217 175 195 199 196 176 172 198 198 195 192 192 190 189 186 185 178 177 180 185 189 191 187 183 182 180 178 178 172 168 167 160 156 146 137 138 139 138 137 135 134 135 131 128 124 119 116 114 109 104 97 92 90 89 85 75 62 47 39
197 60 244 108 310 144 185 198 212 172 171 161 185 186 170 224 351 332 352 202 215 240 230 282 272 228 176 198 184 193 194 186 172 189 194 197 199 197 193 188 186 183 178 178 177 183 186 186 183 182 184 178 171 178 180 177 174 169 164 163 157 153 151 150 148 146 143 142 142 139 135 131 128 122 113 107 103 101 96 93 84 72 71 64 48 32
197 177 216 124 172 213 214 54 348 241 199 188 178 187 184 157 169 188 227 95 235 214 240 181 257 95 164 54 295 36 25 164 187 184 184 193 193 191 193 193 182 180 177 176 180 181 179 178 181 183 172 168 175 186 187 181 175 171 174 169 165 162 161 157 158 156 150 151 148 146 142 136 131 125 115 112 107 97 95 87 75 67 60 59 48 37
269 65 140 191 207 202 358 12 277 333 333 323 273 210 187 194 162 182 230 179 75 251 39 299 339 264 70 25 42 339 339 309 197 195 202 190 194 196 199 193 187 186 175 178 179 178 175 179 182 178 177 183 189 188 185 181 182 179 178 173 174 171 169 166 163 158 158 154 152 150 145 138 132 126 121 113 104 97 92 85 71 58 55 44 44 34
89 181 200 220 56 73 171 211 177 339 20 255 245 320 196 208 196 216 235 133 197 148 182 204 249 271 110 6 341 272 259 289 269 197 211 199 196 196 185 181 181 167 171 173 171 168 181 184 173 172 179 184 189 189 188 183 183 184 181 180 177 180 172 168 163 161 159 158 155 151 144 137 132 130 123 113 106 104 93 86 81 62 58 51 41 27
168 198 185 179 194 169 189 187 208 139 225 237 221 187 224 235 61 65 91 64 252 203 176 177 248 203 196 99 191 245 209 217 223 208 194 192 197 193 188 183 170 166 162 171 177 184 184 182 182 185 183 188 191 189 184 182 188 186 184 183 182 181 172 169 167 166 166 160 152 150 143 141 140 132 125 118 114 108 102 96 92 79 64 47 45 23
198 165 175 199 200 197 197 203 209 193 202 198 229 176 193 199 170 151 221 186 233 158 161 217 243 73 56 168 251 220 213 227 226 208 204 213 183 183 189 182 175 173 176 174 179 181 190 190 182 181 187 191 190 186 184 186 188 187 186 188 183 178 171 173 170 173 165 158 150 149 147 145 140 134 127 120 116 113 107 99 94 94 89 68 31 25
184 147 213 218 215 231 237 50 345 108 118 195 201 177 196 203 193 203 231 193 216 141 204 223 228 227 192 215 219 220 196 206 207 196 198 201 207 197 188 179 174 177 177 182 185 185 171 180 190 191 191 190 187 185 185 186 187 186 186 186 184 179 175 174 173 170 162 157 152 152 152 149 143 136 128 122 115 114 115 112 106 116 108 97 100 71
112 208 219 219 240 151 145 44 338 235 184 208 196 206 193 195 195 200 205 219 116 141 250 239 182 231 234 175 209 214 190 228 223 196 197 211 204 192 186 177 178 175 184 177 173 181 191 191 189 191 192 189 186 184 187 189 188 186 187 185 181 179 177 172 170 165 160 157 155 153 148 141 136 125 117 117 116 121 124 124 143 139 144 146 140 104
166 218 214 180 241 140 156 134 156 86 45 261 219 211 202 197 188 202 216 219 155 210 237 207 152 212 233 193 199 204 191 202 195 199 203 200 175 160 163 174 181 190 186 184 195 193 186 186 190 192 191 188 183 185 188 186 184 180 186 185 180 179 181 170 165 162 161 161 157 151 144 138 127 117 117 121 126 138 154 159 162 162 154 141 125 84
115 241 89 199 231 201 176 155 147 187 292 301 244 231 222 200 200 197 213 216 208 228 240 251 208 232 239 152 180 213 212 197 203 70 70 157 191 178 177 184 190 190 189 196 198 192 190 190 188 189 185 184 186 187 186 182 187 191 188 186 178 181 173 163 165 159 161 162 152 143 144 138 129 129 130 140 150 157 169 176 173 171 151 133 99 97
147 223 143 143 199 233 212 157 160 194 195 247 259 254 232 120 177 219 226 234 237 263 281 284 272 261 175 151 177 47 67 76 93 176 194 188 156 166 179 190 195 199 203 205 197 191 191 189 188 186 186 188 188 185 181 193 192 186 186 180 176 179 170 167 158 160 160 154 145 145 144 139 136 139 149 150 154 163 180 177 176 159 145 126 110 125
187 197 118 167 194 226 146 173 167 138 198 237 253 237 217 171 213 211 217 227 217 226 237 242 249 258 236 132 95 117 125 173 195 187 184 173 169 171 184 195 200 206 207 202 195 188 188 188 188 188 191 193 190 186 191 192 186 178 185 175 178 173 162 162 158 157 154 144 148 151 150 143 141 150 151 154 166 173 174 169 169 161 147 150 142 121
185 161 163 179 185 199 22 134 128 122 112 280 247 222 189 210 222 205 212 217 217 217 227 231 237 241 220 152 161 178 176 186 192 195 192 177 175 181 189 198 207 210 207 195 187 190 188 188 192 193 196 191 190 191 199 190 175 184 180 174 175 149 159 159 157 152 149 151 156 156 149 144 151 154 158 165 164 163 171 174 176 171 175 169 148 189
153 179 167 187 192 117 345 105 125 144 217 233 340 150 186 200 207 213 222 218 222 205 220 229 253 68 124 164 185 182 178 201 199 199 187 174 172 193 205 206 210 209 202 193 192 190 191 189 192 198 196 184 191 201 194 181 180 179 167 157 146 156 161 154 156 153 151 154 159 153 147 151 154 158 162 161 163 171 184 182 192 177 188 169 188 186
171 192 189 139 179 139 134 133 166 212 235 6 25 33 38 69 196 218 227 230 233 221 237 267 255 219 200 172 193 192 184 91 41 161 188 210 191 179 188 200 210 206 198 193 193 194 189 188 192 196 194 196 198 185 164 167 170 151 146 156 159 166 156 160 152 157 158 161 159 153 156 159 164 160 162 165 170 183 190 191 184 187 192 187 188 191
177 174 154 178 132 72 120 182 222 224 13 242 216 58 17 105 10 56 281 258 236 211 208 224 233 206 138 173 120 46 89 86 41 289 242 217 198 181 185 204 205 193 191 193 191 194 191 192 193 191 193 182 169 173 178 179 166 156 162 160 162 160 160 155 158 161 162 161 165 166 167 163 163 162 169 171 178 188 193 189 190 191 181 184 197 199
172 137 188 198 164 202 185 195 232 353 313 257 167 198 171 173 176 181 234 245 195 188 194 210 222 149 165 150 119 102 77 79 267 252 212 204 200 210 201 199 170 187 194 196 192 194 191 188 185 185 165 167 175 172 180 164 151 152 146 160 163 155 161 164 170 173 170 169 168 171 169 171 165 170 173 176 180 189 194 184 187 191 178 185 207 206
253 190 185 194 212 180 174 235 256 251 250 260 233 88 172 157 116 170 222 266 107 181 176 185 211 192 150 131 128 125 124 149 250 244 191 207 190 205 220 71 152 178 177 165 168 157 169 169 160 159 167 171 176 173 161 147 156 153 153 160 161 166 174 177 186 178 172 180 173 171 168 170 169 170 175 175 188 186 188 177 183 181 187 192 194 208
4 44 263 198 217 162 207 219 234 241 241 147 67 157 7 344 134 132 156 254 149 175 186 182 204 168 156 153 154 146 156 210 234 233 134 185 180 191 192 205 186 186 174 173 170 164 165 168 165 163 161 164 164 169 156 153 151 151 164 170 172 177 175 191 188 179 184 183 169 166 164 165 169 176 174 181 184 177 177 178 186 175 173 196 199 218
179 191 169 215 213 211 207 223 227 210 260 241 193 148 183 103 276 169 241 275 108 209 180 182 191 148 155 153 154 173 172 212 228 250 152 169 172 171 187 186 191 193 188 157 149 143 140 137 135 148 160 174 178 159 155 156 163 174 173 176 168 176 193 197 196 187 170 154 155 160 160 164 170 179 175 176 167 170 179 169 165 181 191 189 210 216
178 219 204 214 217 218 221 236 275 277 239 140 167 159 147 214 169 182 231 136 189 211 190 191 176 145 148 151 170 175 220 190 62 71 67 113 115 178 211 214 176 155 162 164 164 145 147 162 166 169 181 185 160 155 158 160 159 175 184 163 172 198 207 200 171 151 161 155 156 162 164 169 179 175 175 169 163 166 165 175 174 165 178 196 215 217
14 119 318 256 230 224 225 233 234 273 224 144 55 162 200 140 198 204 171 69 156 186 195 188 159 164 155 175 188 213 119 98 104 87 140 171 181 164 160 149 134 102 76 118 141 160 158 167 188 172 160 159 152 151 158 159 175 184 166 172 200 211 203 148 147 154 153 161 164 159 158 167 171 170 162 155 153 158 166 167 161 177 184 209 203 218
174 154 198 199 195 38 109 240 221 237 130 115 119 67 279 189 276 89 113 71 53 158 151 193 178 189 180 193 208 154 104 159 164 165 162 185 180 172 162 163 176 179 166 150 161 197 173 171 193 202 192 163 155 165 162 169 183 189 184 190 212 204 146 152 150 159 163 156 155 158 158 166 167 164 159 160 169 158 158 155 162 188 194 203 221 229
187 138 205 214 183 187 190 209 208 259 127 174 146 174 197 195 146 151 129 147 185 160 178 167 208 196 198 194 181 170 153 161 203 209 163 175 196 87 152 188 191 158 161 183 184 178 182 194 196 195 177 163 164 168 170 178 189 190 189 211 214 133 139 141 150 148 157 162 158 153 170 171 166 162 169 166 161 161 160 169 161 185 210 196 213 234
208 194 188 195 176 168 205 218 89 296 157 186 155 25 96 143 139 165 154 155 154 213 189 193 193 180 201 205 193 164 164 204 202 191 184 196 183 190 189 196 189 191 188 188 191 177 186 203 200 190 169 178 179 184 184 194 189 190 201 217 146 165 163 163 155 165 173 172 164 169 167 162 172 169 168 164 163 166 168 164 169 209 206 193 218 225
13 100 354 94 246 76 336 113 37 52 234 198 194 97 53 141 61 145 153 128 231 156 169 180 190 178 192 198 162 189 203 199 192 198 216 226 203 206 200 155 195 199 186 160 172 181 198 201 195 186 200 194 190 194 195 200 200 194 216 164 156 156 138 152 156 171 177 156 163 169 148 159 166 167 167 169 176 185 182 165 180 208 208 206 220 212
211 130 135 203 275 143 238 111 169 176 196 213 219 141 82 347 172 186 242 258 126 155 188 236 178 181 167 161 191 197 203 193 194 202 200 206 210 206 188 201 204 194 185 197 209 169 167 180 199 211 209 212 195 196 197 202 213 222 147 154 150 143 158 162 162 161 154 171 166 157 163 179 184 177 171 178 179 184 181 176 188 202 217 216 214 213
261 169 114 228 237 206 269 142 183 9 275 279 250 229 238 204 191 217 227 120 124 182 196 192 117 118 141 183 212 212 224 193 193 206 202 207 204 200 201 204 204 198 215 213 183 181 181 189 205 214 211 221 205 191 193 197 212 215 185 144 143 148 149 163 177 178 174 167 166 172 176 186 176 176 176 179 181 185 184 188 196 209 215 208 205 207
110 125 206 191 182 152 31 312 209 317 271 222 211 232 242 220 177 194 196 184 157 184 216 199 211 185 180 205 187 200 223 228 206 213 207 203 202 205 206 203 201 206 196 179 190 184 194 199 208 215 211 223 197 177 182 208 210 202 180 169 152 157 158 173 175 167 160 165 166 175 167 181 169 186 178 168 182 210 205 194 196 212 233 231 224 226
125 219 147 115 141 211 195 181 165 148 222 198 212 218 221 210 187 173 146 209 215 221 207 200 221 221 217 224 188 197 210 230 222 211 221 217 208 207 206 211 213 219 222 207 176 199 216 215 211 215 218 226 179 189 199 211 209 198 171 155 153 157 173 175 162 172 176 174 173 167 166 180 177 169 180 180 194 197 237 231 226 224 219 235 229 231
194 207 149 190 212 230 150 161 192 198 213 209 180 206 219 177 163 194 210 213 219 214 195 194 222 210 221 231 218 203 214 221 230 204 219 226 221 217 207 198 209 221 228 199 197 208 213 219 217 222 227 225 190 198 199 202 187 177 173 163 167 173 178 168 170 179 175 167 188 172 166 164 170 177 181 180 183 219 241 265 231 232 236 239 244 247